When you browse on this site, cookies collect data to enhance your experience and personalize the content and advertising you see.
Visit our Privacy Policy to learn more. By continuing to use the site, you agree to this use of cookies and data.
  • En España
  • Lista de países
  • Para 7 días
  • Temperatura del agua
  • El tiempo en el mapa
  • Informadores
  • user-avatar
    Iniciar sesión

    Tiempo cada hora Vorozhba

    Hoy, 8 Abril, Miércoles

    Tiempo Temperatura Precipitaciones Viento Presión Humedad
    00:00 +6°C° 0 mm 4 mps 759 mmHg 62%
    01:00 +6°C° 0 mm 4 mps 759 mmHg 63%
    02:00 +6°C° 0 mm 4 mps 759 mmHg 64%
    03:00 +5°C° 0 mm 5 mps 758 mmHg 64%
    04:00 +5°C° 0 mm 5 mps 757 mmHg 65%
    05:00 +4°C° 0 mm 6 mps 757 mmHg 65%
    06:00 +7°C° 0 mm 6 mps 756 mmHg 60%
    07:00 +8°C° 0 mm 7 mps 755 mmHg 54%
    08:00 +9°C° 0 mm 7 mps 755 mmHg 49%
    09:00 +11°C° 0 mm 8 mps 754 mmHg 48%
    10:00 +12°C° 0 mm 8 mps 754 mmHg 47%
    11:00 +13°C° 0 mm 8 mps 753 mmHg 47%
    12:00 +13°C° 0 mm 8 mps 753 mmHg 47%
    13:00 +13°C° 0 mm 8 mps 753 mmHg 48%
    14:00 +13°C° 0 mm 8 mps 753 mmHg 49%
    15:00 +12°C° 0 mm 7 mps 753 mmHg 52%
    16:00 +11°C° 0 mm 6 mps 753 mmHg 55%
    17:00 +10°C° 0 mm 5 mps 753 mmHg 57%
    18:00 +9°C° 0 mm 5 mps 753 mmHg 61%
    19:00 +8°C° 0 mm 4 mps 753 mmHg 65%
    20:00 +7°C° 0 mm 4 mps 753 mmHg 69%
    21:00 +8°C° 0 mm 3 mps 753 mmHg 72%
    22:00 +7°C° 0 mm 3 mps 753 mmHg 75%
    23:00 +7°C° 0 mm 3 mps 753 mmHg 78%

    Mañana, 9 Abril, Jueves

    Tiempo Temperatura Precipitaciones Viento Presión Humedad
    00:00 +5°C° 0 mm 3 mps 753 mmHg 80%
    01:00 +5°C° 0 mm 3 mps 753 mmHg 83%
    02:00 +5°C° 0 mm 2 mps 753 mmHg 86%
    03:00 +5°C° 0 mm 2 mps 753 mmHg 87%
    04:00 +5°C° 0 mm 2 mps 753 mmHg 88%
    05:00 +5°C° 0 mm 1 mps 753 mmHg 89%
    06:00 +7°C° 0 mm 1 mps 753 mmHg 83%
    07:00 +8°C° 0 mm 1 mps 753 mmHg 77%
    08:00 +9°C° 0 mm 1 mps 753 mmHg 71%
    09:00 +9°C° 0 mm 2 mps 752 mmHg 65%
    10:00 +12°C° 0 mm 2 mps 752 mmHg 59%
    11:00 +13°C° 0 mm 2 mps 752 mmHg 53%
    12:00 +14°C° 0 mm 2 mps 751 mmHg 50%
    13:00 +14°C° 0 mm 3 mps 751 mmHg 46%
    14:00 +16°C° 0 mm 3 mps 750 mmHg 43%
    15:00 +14°C° 0 mm 3 mps 750 mmHg 44%
    16:00 +14°C° 0 mm 3 mps 749 mmHg 45%
    17:00 +14°C° 0 mm 3 mps 749 mmHg 46%
    18:00 +13°C° 0 mm 3 mps 748 mmHg 50%
    19:00 +12°C° 0 mm 3 mps 748 mmHg 54%
    20:00 +10°C° 0 mm 3 mps 748 mmHg 58%
    21:00 +10°C° 0 mm 3 mps 747 mmHg 60%
    22:00 +9°C° 0 mm 3 mps 747 mmHg 61%
    23:00 +8°C° 0 mm 4 mps 747 mmHg 62%

    Pasado mañana, 10 Abril, Viernes

    Tiempo Temperatura Precipitaciones Viento Presión Humedad
    00:00 +8°C° 0 mm 4 mps 746 mmHg 63%
    01:00 +7°C° 0 mm 4 mps 745 mmHg 63%
    02:00 +7°C° 0 mm 5 mps 745 mmHg 63%
    03:00 +7°C° 0 mm 4 mps 745 mmHg 64%
    04:00 +7°C° 0 mm 4 mps 744 mmHg 65%
    05:00 +8°C° 0 mm 3 mps 744 mmHg 67%
    06:00 +9°C° 0 mm 3 mps 744 mmHg 68%
    07:00 +10°C° 0 mm 3 mps 744 mmHg 68%
    08:00 +11°C° 0 mm 3 mps 743 mmHg 69%
    09:00 +10°C° 0.8 mm 4 mps 743 mmHg 74%
    10:00 +8°C° 0.8 mm 4 mps 744 mmHg 80%
    11:00 +8°C° 0.8 mm 5 mps 744 mmHg 85%
    12:00 +8°C° 0.3 mm 6 mps 744 mmHg 77%
    13:00 +9°C° 0.3 mm 6 mps 744 mmHg 69%
    14:00 +9°C° 0.3 mm 6 mps 745 mmHg 61%
    15:00 +9°C° 0 mm 7 mps 745 mmHg 59%
    16:00 +8°C° 0 mm 7 mps 745 mmHg 57%
    17:00 +8°C° 0 mm 7 mps 745 mmHg 54%
    18:00 +7°C° 0 mm 6 mps 746 mmHg 57%
    19:00 +5°C° 0 mm 6 mps 746 mmHg 59%
    20:00 +5°C° 0 mm 5 mps 747 mmHg 62%
    21:00 +3°C° 0 mm 5 mps 747 mmHg 64%
    22:00 +3°C° 0 mm 5 mps 747 mmHg 67%
    23:00 +2°C° 0 mm 5 mps 747 mmHg 69%

    11 Abril, Sábado

    Tiempo Temperatura Precipitaciones Viento Presión Humedad
    00:00 +2°C° 0 mm 5 mps 748 mmHg 71%
    01:00 +1°C° 0 mm 5 mps 748 mmHg 74%
    02:00 +1°C° 0 mm 5 mps 748 mmHg 76%
    03:00 +1°C° 0 mm 5 mps 748 mmHg 76%
    04:00 0°C° 0 mm 5 mps 748 mmHg 76%
    05:00 0°C° 0 mm 5 mps 749 mmHg 76%
    06:00 +1°C° 0 mm 5 mps 749 mmHg 71%
    07:00 +2°C° 0 mm 5 mps 749 mmHg 66%
    08:00 +3°C° 0 mm 6 mps 749 mmHg 61%
    09:00 +4°C° 0 mm 6 mps 750 mmHg 56%
    10:00 +4°C° 0 mm 7 mps 750 mmHg 51%
    11:00 +5°C° 0 mm 7 mps 750 mmHg 46%
    12:00 +5°C° 0 mm 7 mps 751 mmHg 44%
    13:00 +5°C° 0 mm 7 mps 751 mmHg 41%
    14:00 +6°C° 0 mm 8 mps 751 mmHg 39%
    15:00 +5°C° 0 mm 7 mps 751 mmHg 39%
    16:00 +5°C° 0 mm 7 mps 751 mmHg 40%
    17:00 +5°C° 0 mm 7 mps 752 mmHg 40%
    18:00 +4°C° 0 mm 6 mps 752 mmHg 45%
    19:00 +2°C° 0 mm 5 mps 753 mmHg 49%
    20:00 +1°C° 0 mm 4 mps 753 mmHg 54%
    21:00 +2°C° 0 mm 3 mps 754 mmHg 57%
    22:00 +1°C° 0 mm 3 mps 754 mmHg 61%
    23:00 +1°C° 0 mm 3 mps 754 mmHg 65%

    12 Abril, Domingo

    Tiempo Temperatura Precipitaciones Viento Presión Humedad
    00:00 0°C° 0 mm 3 mps 754 mmHg 67%
    01:00 0°C° 0 mm 3 mps 754 mmHg 69%
    02:00 -1°C° 0 mm 3 mps 754 mmHg 72%
    03:00 -1°C° 0 mm 2 mps 755 mmHg 72%
    04:00 -1°C° 0 mm 2 mps 755 mmHg 73%
    05:00 -2°C° 0 mm 2 mps 755 mmHg 73%
    06:00 +1°C° 0 mm 2 mps 755 mmHg 65%
    07:00 +3°C° 0 mm 1 mps 755 mmHg 57%
    08:00 +4°C° 0 mm 1 mps 756 mmHg 49%
    09:00 +5°C° 0 mm 1 mps 755 mmHg 45%
    10:00 +5°C° 0 mm 2 mps 755 mmHg 41%
    11:00 +6°C° 0 mm 2 mps 755 mmHg 36%
    12:00 +7°C° 0 mm 2 mps 755 mmHg 35%
    13:00 +8°C° 0 mm 3 mps 754 mmHg 33%
    14:00 +9°C° 0 mm 3 mps 754 mmHg 32%
    15:00 +8°C° 0 mm 3 mps 753 mmHg 33%
    16:00 +8°C° 0 mm 3 mps 753 mmHg 34%
    17:00 +8°C° 0 mm 3 mps 753 mmHg 34%
    18:00 +7°C° 0 mm 3 mps 752 mmHg 39%
    19:00 +5°C° 0 mm 3 mps 752 mmHg 43%
    20:00 +5°C° 0 mm 2 mps 752 mmHg 48%
    21:00 +4°C° 0 mm 3 mps 752 mmHg 50%
    22:00 +3°C° 0 mm 3 mps 751 mmHg 52%
    23:00 +3°C° 0 mm 3 mps 751 mmHg 54%

    13 Abril, Lunes

    Tiempo Temperatura Precipitaciones Viento Presión Humedad
    00:00 +3°C° 0 mm 3 mps 751 mmHg 55%
    01:00 +3°C° 0 mm 4 mps 751 mmHg 55%
    02:00 +3°C° 0 mm 4 mps 750 mmHg 56%
    03:00 +1°C° 0 mm 4 mps 750 mmHg 57%
    04:00 +1°C° 0 mm 4 mps 750 mmHg 58%
    05:00 +1°C° 0 mm 4 mps 750 mmHg 59%
    06:00 +4°C° 0 mm 4 mps 749 mmHg 59%
    07:00 +6°C° 0 mm 5 mps 749 mmHg 59%
    08:00 +7°C° 0 mm 6 mps 749 mmHg 59%
    09:00 +9°C° 0 mm 6 mps 749 mmHg 54%
    10:00 +11°C° 0 mm 7 mps 748 mmHg 48%
    11:00 +14°C° 0 mm 7 mps 748 mmHg 43%
    12:00 +15°C° 0 mm 7 mps 748 mmHg 42%
    13:00 +15°C° 0 mm 8 mps 747 mmHg 41%
    14:00 +16°C° 0 mm 8 mps 747 mmHg 40%
    15:00 +15°C° 0 mm 7 mps 747 mmHg 42%
    16:00 +15°C° 0 mm 7 mps 746 mmHg 44%
    17:00 +15°C° 0 mm 6 mps 746 mmHg 46%
    18:00 +13°C° 0 mm 6 mps 746 mmHg 49%
    19:00 +11°C° 0 mm 6 mps 746 mmHg 52%
    20:00 +10°C° 0 mm 6 mps 745 mmHg 55%
    21:00 +10°C° 0 mm 7 mps 745 mmHg 56%
    22:00 +10°C° 0 mm 7 mps 745 mmHg 56%
    23:00 +9°C° 0 mm 7 mps 745 mmHg 56%
    Mostrar más